User: anonymous   Login
Location: Erba
(45.8000°N, 9.2500°E)
Time: 03:23:16
(UTC+02:00)
Language:

ISS - Orbit

View from above orbital plane
View from above orbital plane
View from above satellite
View from above satellite

Ground track
Ground track

The orbit data is extracted from the following two-line orbital elements,

1 25544U 98067A   20190.56268288  .00016717  00000-0  10270-3 0  9026
2 25544  51.6401 242.6791 0002738  88.8359 271.3105 15.49146290 35324
Epoch (UTC): 08 July 2020 13:30:15
Eccentricity: 0.0002738
inclination: 51.6401°
perigee height: 417 km
apogee height: 421 km
right ascension of ascending node: 242.6791°
argument of perigee: 88.8359°
revolutions per day: 15.49146290
mean anomaly at epoch: 271.3105°
orbit number at epoch: 3532

The dashed part of the orbit path shows where the satellite is in the earth's shadow,  

DLR